User: anonymous   Login
Location: Bois de la Silve
(44.4667°N, 6.7833°E)
Time: 19:30:22
(UTC+00:00)
Language:

SeaSat 1 - Orbit

View from above orbital plane
View from above orbital plane
View from above satellite
View from above satellite

Ground track
Ground track

The orbit data is extracted from the following two-line orbital elements,

1 10967U 78064A   20263.55584094 -.00000072 +00000-0 +19250-4 0  9992
2 10967 108.0076 267.6287 0003010 271.4324 088.6476 14.43835636218173
Epoch (UTC): 19 September 2020 13:20:24
Eccentricity: 0.0003010
inclination: 108.0076°
perigee height: 744 km
apogee height: 748 km
right ascension of ascending node: 267.6287°
argument of perigee: 271.4324°
revolutions per day: 14.43835636
mean anomaly at epoch: 88.6476°
orbit number at epoch: 21817

The dashed part of the orbit path shows where the satellite is in the earth's shadow,  

DLR